Location: St Andrew
(49.4460°N, 2.5750°W)
Time: 20:11:20
(UTC+01:00)

Daily predictions for brighter satellites

Satellite Brightness Start Highest point End
(mag) Time Altitude Azimuth Time Altitude Azimuth Time Altitude Azimuth
Cosmos 1626 Rocket 3.7 21:39:07 10° S 21:43:33 84° W 21:47:59 10° N
Cosmos 2084 4.5 21:40:32 10° NNW 21:44:19 36° NE 21:48:16 10° ESE
Cosmos 1666 4.4 21:40:47 10° NNW 21:44:20 33° W 21:47:51 10° SSW
SeaSat 1 2.5 21:40:22 10° SSE 21:45:18 89° SW 21:50:18 10° NNW
ATLAS 3B R/B 3.5 21:39:49 10° S 21:46:39 36° ESE 21:53:20 10° NE
Cosmos 2263 4.4 21:44:29 10° NNW 21:50:05 66° ENE 21:55:42 10° SE
USA 245 4.3 21:44:49 10° SSE 21:50:23 58° ENE 21:55:01 10° N
Lacrosse 4 Rocket 2.6 21:47:24 10° SSE 21:50:34 22° ESE 21:53:46 10° ENE
Atlas Centaur 2 4.3 21:48:12 10° SSW 21:52:54 18° S 21:58:00 10° SE
CZ-4B R/B 3.9 21:48:39 10° NNE 21:53:31 44° E 21:58:28 10° S
SL-08 RB Rocket 4.3 21:53:15 10° SE 21:57:34 43° ENE 22:01:51 10° N
H-2A R/B 3.2 21:54:00 10° ESE 21:58:18 30° ENE 22:02:44 10° N
Cosmos 1603 3.9 21:57:25 10° SSW 22:03:02 78° WNW 22:08:41 10° NNE
BREEZE-M DEB (TANK) 3.0 22:00:15 10° SW 22:03:03 26° SSE 22:04:53 10° E
Cosmos 1953 Rocket 4.1 21:59:00 10° SSE 22:03:09 41° E 22:07:21 10° NNE
USA 234 3.4 21:57:38 10° SE 22:04:13 79° SW 22:10:49 10° WNW
Meteor 1-22 Rocket 4.3 21:58:41 10° N 22:04:14 68° ENE 22:10:00 10° SSE
Cosmos 1066 Rocket 4.4 21:59:11 10° S 22:04:45 57° E 22:10:29 10° NNE
Cosmos-2242 4.1 22:03:02 10° N 22:06:59 31° ENE 22:10:42 11° SE
SPOT 1/Viking Rocket 3.6 22:01:57 10° SSE 22:07:07 79° ENE 22:12:17 10° NNW
YAOGAN 6 2.7 22:11:26 10° S 22:15:09 80° WSW 22:18:56 10° NNW
MetOp-A 4.5 22:10:42 10° S 22:16:02 67° WSW 22:21:24 10° NNW
Cosmos 1943 Rocket 2.4 22:12:24 10° NNW 22:17:55 61° ENE 22:22:56 13° SE
CZ-4 R/B 4.2 22:13:05 10° NNE 22:17:59 51° E 22:22:52 10° S
Cosmos 1515 4.0 22:16:08 10° SSW 22:19:58 71° W 22:23:51 10° N
CZ-4C R/B 3.6 22:17:53 12° SSE 22:21:39 61° ENE 22:25:34 10° N
Landsat 7 4.1 22:18:32 12° SSE 22:22:48 56° ENE 22:27:28 10° N
Cosmos 1943 3.2 22:18:58 10° SSW 22:24:36 72° ESE 22:30:18 10° NNE
SPOT 5 4.1 22:27:02 10° SSW 22:30:58 33° W 22:34:55 10° NNW
ISS -3.4 22:28:18 10° SW 22:31:32 61° SSE 22:34:47 10° ENE
COSMOS 2455 3.1 22:25:55 10° SW 22:31:56 76° NW 22:38:00 10° NNE
Cosmos 1953 2.9 22:30:01 10° N 22:33:50 43° ENE 22:36:38 17° SE
SAR-Lupe-2 4.0 22:31:46 16° SE 22:34:23 50° ENE 22:37:53 10° N
Cosmos 1758 Rocket 3.5 22:32:34 10° S 22:36:56 73° E 22:41:18 10° NNE
Lacrosse 5 rocket 3.3 22:33:28 10° WNW 22:37:04 30° N 22:40:51 10° NE
Terra 2.1 22:34:49 15° SE 22:38:37 57° ENE 22:43:18 10° N
CARTOSAT-1 3.8 22:36:45 16° SSE 22:40:05 59° ENE 22:44:22 10° N
Cosmos 407 Rocket 3.5 22:36:43 10° SSW 22:41:57 74° ESE 22:47:10 10° NNE
Lacrosse 5 3.5 22:38:17 10° WNW 22:42:58 35° N 22:47:36 10° ENE
Meteor 1-21 4.3 22:41:24 10° S 22:47:10 74° E 22:53:01 10° NNE
DELTA 2 DEB (DPAF) 4.3 22:45:20 14° S 22:49:08 72° WSW 22:53:39 10° NNW
Cosmos 1346 Rocket 3.2 22:48:43 10° SSW 22:52:35 62° WNW 22:56:33 10° N
ARGOS 3.8 22:51:06 11° S 22:56:15 53° W 23:01:35 10° NNW
Cosmos 1842 3.2 22:58:50 17° S 23:01:50 80° E 23:05:46 10° NNE
Cosmos 1954 Rocket 4.0 22:57:06 10° S 23:02:21 66° ESE 23:07:37 10° NNE
Nadezhda 4 Rocket 4.3 22:57:41 17° SSE 23:02:29 54° E 23:08:37 10° NNE
Cosmos 2208 Rocket 4.0 22:57:45 10° NNW 23:02:58 78° ENE 23:06:30 21° SSE
Cosmos 1842 Rocket 3.8 22:59:02 10° N 23:03:22 58° ENE 23:06:02 22° SSE
Cosmos 2369 Rocket 3.7 22:58:43 10° NW 23:03:31 29° WSW 23:08:16 10° SSW
SL-27 R/B 2.4 23:05:01 23° S 23:06:50 56° ESE 23:10:08 10° NNE
COSMOS 2487 4.1 23:07:02 18° ESE 23:07:31 19° E 23:10:07 10° NE
Cosmos 1900 4.4 23:02:35 10° SSW 23:07:45 86° SE 23:12:54 10° NE
Aureole 2 4.4 23:07:04 10° NNW 23:10:06 53° ENE 23:11:16 30° SE
Cosmos 1733 4.2 23:13:37 10° N 23:17:12 34° ENE 23:18:56 23° ESE
IGS 5A 3.6 23:16:04 22° S 23:18:40 67° WSW 23:22:51 10° NNW
Cosmos 1758 3.7 23:16:51 10° NNW 23:20:56 61° W 23:23:28 22° S
Cosmos 1741 Rocket 4.3 23:20:18 21° S 23:23:37 51° ESE 23:28:46 10° NNE
SL-8 R/B 3.9 23:19:04 10° W 23:23:46 52° SSW 23:26:25 24° SE
Cosmos 2084 4.2 23:20:03 10° NW 23:23:54 39° SW 23:25:54 24° S
Geosat 3.9 23:20:30 10° NNE 23:25:35 83° ESE 23:30:37 10° SSW
Lacrosse 4 Rocket 2.4 23:25:06 10° SW 23:29:01 46° NW 23:33:02 10° NNE
CZ-4B R/B 3.7 23:29:19 14° E 23:31:09 19° ENE 23:33:48 10° NNE
CZ-4C R/B 3.4 23:30:04 21° SE 23:31:22 23° ESE 23:35:51 10° ENE
Spot 2 4.4 23:26:36 10° NNE 23:31:24 85° WNW 23:35:19 17° SSW
H-2A R/B 4.3 23:29:27 10° NE 23:31:39 15° E 23:32:15 14° ESE
Cosmos 2278 4.5 23:31:06 10° NNW 23:36:33 45° NE 23:40:38 17° ESE
ATLAS 3B R/B 3.2 23:29:23 10° SW 23:37:04 71° NW 23:44:30 10° NE
H-2A R/B 2.8 23:34:06 17° SSW 23:37:34 43° W 23:42:27 10° NNW
Cosmos 1570 Rocket 4.5 23:32:23 10° NNW 23:37:37 55° WSW 23:40:48 23° S
Cosmos 1607 4.1 23:33:41 16° SSW 23:38:33 55° ESE 23:44:35 10° NE
Cosmos 1932 4.4 23:32:25 10° SSW 23:38:36 83° SE 23:44:54 10° NE
Cosmos 1850 Rocket 3.9 23:36:54 21° S 23:40:26 71° ESE 23:45:39 10° NNE
Atlas Centaur 2 4.4 23:36:31 10° SW 23:41:10 17° S 23:41:18 17° S
Cosmos 2221 3.0 23:37:39 10° N 23:41:53 50° ENE 23:43:46 29° SE
Cosmos 2026 Rocket 4.5 23:38:50 24° SSE 23:42:06 44° E 23:47:48 10° NNE
CZ-4C R/B 4.1 23:42:36 25° ESE 23:43:35 30° ENE 23:46:27 10° N
COSMOS 2406 3.2 23:39:46 15° SSW 23:44:35 81° ESE 23:50:22 10° NNE
NOSS 3-2 (A) 4.2 23:43:23 25° SSE 23:45:57 34° ESE 23:51:49 10° NE
USA 234 4.4 23:44:31 18° S 23:47:53 27° SW 23:53:19 10° WNW
Cosmos 1470 2.7 23:44:49 10° NNW 23:48:44 81° W 23:50:17 35° S
Cosmos 1689 Rocket 4.0 23:50:10 20° E 23:51:10 23° ENE 23:53:49 10° NNE
Cosmos 1340 2.7 23:49:54 38° SSE 23:51:11 65° E 23:54:58 10° NNE
Cosmos 1140 Rocket 3.6 23:48:03 14° SSW 23:52:32 76° WNW 23:57:49 10° NNE
Cosmos 1697 Rocket 4.4 23:48:02 10° NNW 23:52:50 27° NE 23:57:35 10° E
Cosmos 468 Rocket 4.2 23:48:38 10° NNW 23:53:54 64° ENE 23:56:47 26° SE
